User: anonymous   Login
Location: Unspecified
(0.0000°N, 0.0000°E)
Time: 08:03:23
(UTC+00:00)
Language:

GALASSIA - Orbit

View from above orbital plane
View from above orbital plane
View from above satellite
View from above satellite

Ground track
Ground track

The orbit data is extracted from the following two-line orbital elements,

1 41170U 15077E   19345.39552799  .00001663  00000-0  51347-4 0  9994
2 41170  14.9897   0.6256 0012819  42.9323 317.1997 15.14290610220714
Epoch (UTC): 11 December 2019 09:29:33
Eccentricity: 0.0012819
inclination: 14.9897°
perigee height: 514 km
apogee height: 532 km
right ascension of ascending node: 0.6256°
argument of perigee: 42.9323°
revolutions per day: 15.14290610
mean anomaly at epoch: 317.1997°
orbit number at epoch: 22071

The dashed part of the orbit path shows where the satellite is in the earth's shadow,  

DLR